sat.trackr.live / text

‹ back to catalog

STARLINK-1983

NORAD 47630 · 2021-012L

PAYLOAD ACTIVE UNKNOWN

§ Identity

Operator
Country
US
Launch date
2021-02-16
Launch site
AFETR
Launch vehicle
Mass (kg)
RCS (m²)

Purposes: comms

External: N2YO · Heavens-Above · Gunter

§ Orbital elements

Epoch: 2026-09-19T12:31:13.402560Z

Period
93.86 min
Inclination
53.1567°
Eccentricity
0.0004149
Mean motion
15.34278963 rev/d
Perigee alt
460.2 km
Apogee alt
465.9 km
Semi-major
6,841.2 km
B*
1.0422e-3
RAAN
227.1350°
Arg perigee
76.7854°
Mean anomaly
283.3612°
Rev number
30,998

§ Raw data

STARLINK-19831 47630U 21012L   26262.52168290  .00034871  00000+0  10422-2 0  99902 47630  53.1567 227.1350 0004149  76.7854 283.3612 15.34278963309986

JSON: /api/v1/satellites/47630 · /tle

For live sub-satellite position, see the globe view (requires WebGL).

§ Visibility from observer

Set your observer location to see the next 7 days of passes ≥ 10°. The values pass through the URL so the page stays shareable.

No JS? Fill the form by hand. The geolocation button needs JavaScript.